{"data":{"norad_id":62967,"epoch":"2026-05-25T05:15:57.439584Z","epoch_age_seconds":56367,"freshness":"FRESH","line1":"1 62967U 25029V   26145.21941481  .00024206  00000+0  72494-3 0  9998","line2":"2 62967  53.1587 236.3405 0001427  88.6300 271.4866 15.34412743 73045","mean_motion":15.34412743,"eccentricity":0.0001427,"inclination_deg":53.1587,"raan_deg":236.3405,"arg_perigee_deg":88.63,"mean_anomaly_deg":271.4866,"bstar":0.00072494,"rev_number":7304,"period_min":93.84697869392,"perigee_km":461.68918309019,"apogee_km":463.64154808533,"semimajor_km":6840.8023655878,"source":"CELESTRAK","updated_at":"2026-05-25T13:38:19.828607Z"}}